This is the latest recevied weather packets stored in our database for station/object KJ4W. If no packets are shown the sender has not sent any weather packets the latest 10 day(s).
| Time | Temp. | Humidity | Pressure | Rain* | Wind** | Luminosity | Snow |
|---|---|---|---|---|---|---|---|
| 1777930128 | 26.11° C | 39% | 1008.5 hPa | 0 mm | - | - | - |
| 1777929227 | 26.67° C | 40% | 1008.6 hPa | 0 mm | - | - | - |
| 1777928329 | 26.67° C | 39% | 1008.5 hPa | 0 mm | - | - | - |
| 1777927428 | 26.67° C | 39% | 1008.6 hPa | 0 mm | - | - | - |
| 1777926528 | 26.67° C | 38% | 1008.6 hPa | 0 mm | - | - | - |
| 1777925627 | 26.67° C | 38% | 1008.7 hPa | 0 mm | - | - | - |
| 1777924730 | 26.67° C | 39% | 1008.9 hPa | 0 mm | - | - | - |
| 1777923828 | 27.22° C | 39% | 1009.2 hPa | 0 mm | - | - | - |
| 1777922929 | 27.22° C | 38% | 1009.4 hPa | 0 mm | - | - | - |
| 1777922028 | 26.67° C | 39% | 1009.7 hPa | 0 mm | - | - | - |
| 1777921128 | 26.67° C | 44% | 1009.8 hPa | 0 mm | - | - | - |
| 1777920228 | 26.67° C | 41% | 1009.9 hPa | 0 mm | - | - | - |
| 1777919327 | 26.67° C | 45% | 1010.2 hPa | 0 mm | - | - | - |
| 1777918427 | 26.67° C | 40% | 1010.3 hPa | 0 mm | - | - | - |
| 1777917527 | 26.11° C | 47% | 1010.5 hPa | 0 mm | - | - | - |
| 1777916628 | 26.67° C | 45% | 1010.7 hPa | 0 mm | - | - | - |
| 1777915727 | 26.11° C | 48% | 1010.8 hPa | 0 mm | - | - | - |
| 1777914827 | 25.56° C | 46% | 1011 hPa | 0 mm | - | - | - |
| 1777913938 | 25.56° C | 49% | 1011.2 hPa | 0 mm | - | - | - |
| 1777913029 | 25.56° C | 49% | 1011.3 hPa | 0 mm | - | - | - |
| 1777912127 | 25° C | 51% | 1011.4 hPa | 0 mm | - | - | - |
| 1777911228 | 24.44° C | 50% | 1011.8 hPa | 0 mm | - | - | - |
| 1777910328 | 23.89° C | 53% | 1012 hPa | 0 mm | - | - | - |
| 1777909429 | 23.89° C | 53% | 1012.1 hPa | 0 mm | - | - | - |
| 1777908527 | 23.33° C | 58% | 1012.1 hPa | 0 mm | - | - | - |
* Rain latest hour (hover to see other rain measurements)
** Current wind speed in m/s (hover to see current wind gust speed)